Location: Lane
(33.5226°N, 79.8788°W)
Time: 04:54:44
(UTC+00:00)

Transit 2A Rocket - Pass Details

Date: 05 October 2022
Orbit: 589 x 911 km, 66.7° (Epoch: 27 November)

Event Time Altitude Azimuth Distance (km) Brightness Sun altitude
Exits shadow 08:59:08 10° 150° (SSE) 1,961 7.3 -29.3°
Reaches altitude 10° 08:59:12 10° 149° (SSE) 1,941 7.2 -29.3°
Maximum altitude 09:02:04 17° 108° (ESE) 1,502 7.1 -28.7°
Drops below altitude 10° 09:04:53 10° 66° (ENE) 1,916 8.0 -28.1°
Sets 09:07:43 0° 46° (NE) 2,823 8.8 -27.5°
